sat.trackr.live / text

‹ back to catalog

STARLINK-5925

NORAD 55945 · 2023-037AH

PAYLOAD ACTIVE UNKNOWN

§ Identity

Operator
Country
US
Launch date
2023-03-17
Launch site
AFWTR
Launch vehicle
Mass (kg)
RCS (m²)

Purposes: comms

External: N2YO · Heavens-Above · Gunter

§ Orbital elements

Epoch: 2026-05-25T03:20:58.390944Z

Period
96.11 min
Inclination
69.9997°
Eccentricity
0.0003044
Mean motion
14.98335317 rev/d
Perigee alt
569.9 km
Apogee alt
574.2 km
Semi-major
6,950.2 km
B*
-4.7490e-5
RAAN
91.6213°
Arg perigee
266.2333°
Mean anomaly
93.8478°
Rev number
17,543

§ Raw data

STARLINK-59251 55945U 23037AH  26145.13956471 -.00000660  00000+0 -47490-4 0  99982 55945  69.9997  91.6213 0003044 266.2333  93.8478 14.98335317175430

JSON: /api/v1/satellites/55945 · /tle

For live sub-satellite position, see the globe view (requires WebGL).

§ Visibility from observer

Set your observer location to see the next 7 days of passes ≥ 10°. The values pass through the URL so the page stays shareable.

No JS? Fill the form by hand. The geolocation button needs JavaScript.